Theta_e
314 315 315 315 315 315 315 315 316 317 317 318 318 318 319 317 315 307 301 309 313 322 320 307 306 308 311 308 309 309 301 298 296 297 298 301 300 302 305 303 302 302 300 302 306
313 314 314 315 315 315 315 315 315 316 317 317 318 319 318 316 304 302 313 318 320 322 305 304 302 305 305 305 307 304 301 297 299 299 297 299 300 299 300 299 298 299 302 303 305
313 313 313 314 314 314 314 314 314 315 316 317 318 317 316 311 302 300 316 317 318 315 305 305 304 304 301 303 301 302 297 298 298 298 299 298 297 299 299 296 296 295 297 301 302
313 313 313 314 314 314 314 314 314 316 317 318 316 312 312 307 291 302 316 316 316 308 305 306 303 300 298 297 299 296 296 297 297 299 297 296 298 294 295 294 298 298 299 299 300
313 312 313 313 314 314 314 313 314 314 315 317 316 314 307 299 297 305 315 312 306 306 304 302 301 301 296 297 299 296 296 296 297 296 297 298 295 293 292 295 297 297 298 298 298
312 312 312 313 313 313 314 313 313 314 314 315 315 313 304 293 304 305 304 305 305 305 302 301 300 302 298 296 297 296 295 294 295 294 294 294 293 294 293 296 295 295 295 297 297
312 312 313 313 313 313 313 313 313 313 314 315 312 305 299 296 305 306 304 303 304 303 299 300 301 297 297 294 296 295 292 293 292 293 291 294 291 288 292 294 293 293 294 295 296
312 313 313 313 313 313 313 312 312 315 314 312 312 306 296 304 306 303 304 302 303 303 300 300 300 296 295 295 292 289 291 286 290 289 290 290 286 289 292 292 291 292 293 293 295
312 313 313 312 312 312 311 311 310 313 310 310 307 304 295 307 299 302 302 299 300 301 300 299 297 293 293 291 289 288 282 283 284 288 287 288 285 288 291 290 289 291 291 292 293
312 313 313 312 311 310 309 310 310 311 306 305 304 300 299 294 298 300 302 301 298 298 296 296 293 289 287 285 278 279 280 282 281 285 285 285 284 287 288 288 288 289 290 290 291
312 312 312 312 310 310 308 312 304 300 301 296 296 295 295 299 301 297 300 298 299 295 289 291 286 281 282 283 282 282 281 280 283 283 282 282 283 284 286 286 286 288 288 289 290
311 312 311 311 310 310 316 307 304 303 294 299 298 296 297 299 292 294 300 292 292 287 291 288 281 283 284 283 282 281 279 280 282 284 282 282 281 283 284 284 285 286 287 288 289
311 311 310 309 309 313 311 306 312 309 297 295 297 295 295 296 290 290 294 292 289 286 285 282 282 284 282 282 280 281 279 278 278 282 283 281 278 280 282 284 284 285 287 288 288
311 310 308 308 308 310 307 310 315 313 295 290 293 293 296 295 290 294 294 291 287 284 284 282 284 282 282 279 280 277 281 280 280 279 276 281 271 276 280 281 283 284 285 286 288
310 310 307 311 308 307 308 315 317 313 287 291 292 298 295 291 290 289 294 292 285 284 286 279 280 280 279 279 281 278 282 281 281 279 278 277 275 274 278 277 279 282 284 286 287
310 308 307 312 313 309 314 314 312 295 282 287 292 290 290 290 288 290 289 291 289 285 284 281 285 282 281 283 282 283 281 282 282 280 272 274 275 272 274 276 279 282 284 285 286
309 306 309 313 310 312 315 309 295 289 288 286 286 289 287 285 286 286 285 283 281 280 279 281 280 283 284 280 283 281 278 273 272 272 269 275 274 272 277 279 280 280 282 284 286
306 306 304 309 314 313 310 299 288 284 285 288 288 287 284 285 285 284 283 282 283 282 281 277 275 279 282 280 277 278 277 271 265 267 269 273 268 273 278 281 282 282 283 284 285
306 312 308 308 310 309 302 289 286 287 287 286 287 285 284 284 285 284 281 281 281 282 278 276 275 281 281 282 281 277 275 279 273 275 270 273 273 277 280 280 281 281 282 283 284
312 308 304 308 308 307 298 286 287 289 289 288 284 284 283 283 283 283 281 281 280 282 284 279 275 279 280 283 282 279 281 273 274 265 264 269 268 271 274 276 279 280 281 283 284
311 303 306 307 308 301 291 288 288 290 290 287 285 284 283 282 283 282 280 281 282 281 283 281 278 277 280 277 276 277 276 276 276 273 266 265 270 276 276 278 278 280 281 283 284
309 301 306 308 298 295 291 290 290 289 290 288 288 285 283 283 282 282 280 281 284 283 279 281 278 275 275 280 281 279 276 276 271 269 271 271 271 280 279 280 281 281 282 284 284
302 300 307 306 288 291 290 288 289 288 287 287 285 286 286 284 281 282 282 284 285 283 281 282 279 273 275 278 280 277 278 277 276 274 269 267 269 279 280 280 281 281 282 283 284
304 296 299 298 297 293 290 288 286 289 287 287 285 286 285 284 285 282 281 283 284 284 283 283 279 273 272 273 278 274 276 276 273 270 270 271 272 276 278 278 280 281 283 284 284
301 294 294 289 293 293 292 289 287 285 288 288 286 285 284 282 282 281 282 282 284 284 284 283 277 278 278 278 278 276 275 276 273 273 270 272 272 275 278 279 280 282 283 283 283
301 297 295 292 293 292 289 288 288 286 287 285 286 286 285 284 283 281 282 282 282 284 283 283 278 279 275 277 276 275 276 277 276 275 273 273 273 281 281 282 282 282 283 282 282
301 299 301 288 291 292 290 289 288 289 287 288 288 287 285 286 287 288 288 287 286 283 281 280 279 276 272 273 275 273 273 275 276 277 275 272 277 281 279 280 282 282 282 283 283
Wind_Speed
12 12 12 10 9 8 7 7 6 5 6 8 9 8 8 6 11 24 26 14 11 17 15 8 5 3 3 4 3 3 4 2 3 4 6 8 4 11 9 12 20 14 16 15 16
12 11 10 10 9 9 8 7 7 7 8 10 10 8 6 5 4 26 20 23 18 12 6 9 4 2 5 3 3 5 3 6 6 6 5 13 8 7 3 9 11 19 18 19 18
11 10 9 9 8 8 8 8 7 8 8 9 9 7 1 5 7 16 28 25 18 12 5 5 2 1 6 4 7 8 10 3 10 11 4 5 16 18 7 10 17 20 21 21 21
11 11 11 10 10 10 9 8 8 10 11 10 9 8 6 5 7 21 25 18 14 8 3 11 4 4 6 9 5 10 12 10 11 14 11 7 9 16 19 11 14 15 16 18 21
11 10 9 9 8 8 8 8 9 10 12 11 7 4 1 20 14 21 17 9 9 13 15 8 13 8 8 7 12 7 8 13 10 14 12 11 13 12 17 14 14 16 17 19 19
11 10 9 8 7 6 6 6 7 8 8 9 10 19 19 29 16 16 16 15 10 15 19 21 8 9 12 9 12 10 16 14 13 8 13 8 8 2 15 14 14 17 19 19 20
11 10 10 9 8 7 7 7 7 6 5 3 4 4 36 15 15 15 17 18 19 17 22 18 22 22 5 8 7 4 5 5 15 15 8 7 2 11 14 14 15 17 18 19 20
12 11 9 8 7 7 6 6 5 4 4 4 1 15 15 18 17 23 16 16 19 12 13 16 13 17 12 1 3 8 3 9 14 14 10 13 3 14 15 15 16 18 17 18 21
12 10 9 8 7 6 3 3 6 7 5 2 6 8 10 15 23 20 18 6 4 14 17 11 9 20 21 8 5 9 11 14 12 7 16 7 5 14 16 16 16 17 17 18 19
12 12 10 10 8 7 2 12 9 6 3 2 11 6 15 14 17 19 13 16 9 4 5 20 10 15 17 15 8 13 13 12 16 12 14 7 6 10 14 17 17 17 18 18 19
14 13 11 10 8 6 4 4 5 10 24 20 13 13 9 10 17 23 19 19 13 15 11 19 19 20 18 13 7 10 14 15 13 5 12 2 2 7 14 16 18 18 17 18 19
13 12 10 7 7 4 2 4 4 7 16 17 20 14 10 11 11 26 20 9 20 21 6 6 21 14 9 12 12 10 11 13 11 8 10 4 9 13 12 15 16 18 18 18 19
13 13 11 5 2 7 9 7 2 3 5 10 12 16 9 14 16 20 17 6 15 17 19 18 11 9 8 11 15 10 14 18 18 14 12 7 8 8 9 13 14 16 18 17 18
13 12 11 4 2 2 6 2 1 2 4 9 10 10 18 1 9 19 14 6 6 11 6 11 11 14 12 15 13 13 20 20 15 8 2 1 4 11 10 13 15 16 16 19 19
13 12 9 7 7 3 4 2 1 4 1 8 6 2 11 11 7 19 14 11 14 14 6 5 8 14 14 17 12 15 22 20 8 5 6 2 5 11 14 16 17 17 18 16 18
13 13 2 3 5 4 2 2 4 4 5 3 4 7 8 13 8 7 15 5 1 7 13 8 6 7 15 15 6 19 23 8 8 7 2 8 9 11 10 13 16 17 18 18 18
8 13 7 2 4 4 1 4 2 6 2 3 3 5 5 7 6 6 9 20 12 6 10 6 12 7 16 15 13 18 19 8 3 2 8 7 3 6 10 11 12 15 15 17 18
3 1 6 6 4 1 3 4 8 1 2 2 2 1 4 8 5 7 1 10 15 10 3 9 4 15 14 10 15 16 15 9 11 10 4 6 4 6 5 10 11 13 14 14 16
5 2 4 7 5 3 4 7 3 2 2 1 3 2 4 3 2 1 6 7 9 12 8 9 6 7 9 6 12 11 14 11 7 7 7 5 5 8 6 12 13 14 15 15 16
2 2 5 8 5 4 4 5 4 2 1 2 2 3 5 6 1 2 6 3 3 5 6 6 4 6 5 7 7 7 7 11 7 7 12 4 3 8 11 14 14 15 15 16 17
1 3 5 4 4 3 5 6 5 3 1 2 1 1 3 4 2 3 3 3 2 3 4 3 5 9 4 6 9 9 9 7 5 3 8 8 5 3 7 11 12 15 16 17 17
1 1 5 3 3 4 5 7 4 6 3 3 2 2 2 1 1 2 3 3 2 2 3 5 4 9 4 5 1 3 7 7 8 12 6 6 1 5 5 10 12 13 16 17 17
2 3 3 4 5 4 7 6 3 5 2 3 2 2 0 1 2 0 1 5 3 2 4 4 3 8 5 9 6 7 8 7 9 4 6 10 4 4 6 10 12 13 14 17 17
2 2 4 5 4 10 10 7 6 3 4 3 3 2 3 2 1 2 1 4 4 3 1 4 2 3 7 9 12 8 9 6 3 9 9 8 11 11 12 10 11 12 13 15 17
4 3 3 2 3 7 4 5 9 5 2 4 3 1 1 2 1 1 1 3 4 5 5 5 7 6 9 11 10 9 9 9 8 10 9 13 13 14 14 11 11 12 13 15 16
3 4 4 5 6 7 1 5 7 5 6 5 3 4 2 1 2 3 2 3 2 6 5 4 7 9 11 5 8 9 8 10 10 11 11 15 17 6 10 11 10 12 12 13 14
2 2 2 2 5 3 3 6 7 7 2 1 2 3 4 1 3 5 5 6 3 4 4 5 6 7 4 3 7 8 3 7 9 10 10 14 15 12 15 15 12 13 13 12 14
Wind_Direction
17 18 21 20 21 22 25 22 8 350 330 327 332 328 327 325 288 36 31 340 322 311 305 293 254 166 188 94 28 292 234 94 66 310 50 13 334 43 48 82 62 58 32 6 359
16 16 15 10 10 8 14 12 4 346 343 338 331 322 314 273 300 30 7 347 342 331 325 353 34 195 97 83 40 322 302 59 19 16 77 47 35 28 46 44 13 7 11 9 10
16 15 12 7 6 3 5 6 346 340 337 330 333 358 116 238 48 1 355 341 336 312 339 347 338 8 79 57 22 30 38 350 21 8 221 106 65 29 335 47 15 355 354 2 8
18 13 7 1 357 358 358 348 341 341 350 3 4 359 324 202 46 346 342 330 320 348 50 33 52 77 63 54 32 114 51 36 40 24 51 47 85 63 43 26 358 355 356 4 8
14 12 5 356 352 350 347 343 346 352 352 12 28 350 66 65 27 346 332 1 42 50 47 37 49 65 69 73 82 65 85 71 77 63 52 67 72 77 37 8 3 359 6 8 7
9 6 1 354 347 342 337 342 337 340 358 360 351 48 65 60 356 6 23 47 48 59 49 40 42 59 71 44 39 95 87 76 55 67 55 41 49 343 14 358 5 5 4 5 5
4 360 357 352 345 341 337 332 335 328 338 359 341 355 52 34 19 26 51 52 51 56 64 44 58 48 309 102 27 164 164 135 31 4 41 347 141 33 4 357 8 5 5 359 3
1 355 352 349 345 340 333 340 11 97 113 90 2 73 77 30 17 33 14 65 60 54 64 37 43 56 27 123 67 354 193 332 36 6 10 332 294 34 8 5 8 6 4 1 359
358 352 355 357 348 343 349 34 33 47 36 198 46 81 52 14 21 9 17 26 82 67 62 50 69 49 21 354 161 53 324 328 329 37 341 341 339 27 12 10 8 7 5 359 357
359 357 358 359 5 357 40 97 103 42 145 224 32 125 35 18 15 19 9 34 36 92 52 32 54 48 36 25 21 331 326 314 312 348 334 333 79 33 14 10 8 5 3 2 358
360 356 353 359 17 11 213 220 187 53 56 64 49 74 42 13 33 22 353 28 48 58 78 39 55 31 28 34 357 314 316 316 352 28 330 354 8 30 22 13 3 6 6 1 2
354 353 353 349 21 16 31 48 35 118 85 68 67 72 51 41 27 17 359 54 42 45 78 81 47 25 34 19 349 337 329 342 314 252 328 318 58 49 30 19 10 358 359 0 359
352 350 349 342 290 44 82 77 28 237 87 62 59 39 20 43 39 7 9 23 32 56 60 63 34 12 8 21 347 337 351 331 313 305 267 245 92 57 55 32 17 8 353 358 1
350 352 343 230 147 116 71 32 354 271 142 15 20 29 4 141 61 24 7 342 59 35 66 54 38 14 22 11 346 322 340 316 306 281 271 15 132 60 21 31 26 8 7 355 355
353 355 10 37 119 87 79 330 197 238 214 9 41 36 35 61 324 24 21 55 58 32 317 62 30 21 19 357 344 336 314 303 307 243 204 76 246 57 33 8 6 4 359 3 353
355 1 279 79 64 47 333 205 233 222 68 55 34 13 34 38 43 36 36 60 80 75 73 69 91 27 3 342 13 338 329 251 215 178 157 6 290 66 14 4 355 359 356 353 356
358 32 40 8 61 345 220 216 181 64 166 58 4 4 48 35 55 36 31 45 36 328 26 154 51 59 7 352 353 9 356 338 304 304 35 2 18 43 357 355 352 350 355 351 349
38 357 49 45 8 302 230 214 71 61 44 89 336 159 46 1 65 35 39 48 40 11 13 356 5 11 358 13 329 10 9 10 309 345 12 111 37 94 353 350 357 353 349 349 348
190 85 58 7 330 270 241 55 94 111 88 268 197 261 105 83 338 95 54 46 32 16 28 345 75 8 26 4 3 341 11 312 284 251 274 84 134 211 325 353 354 354 348 350 350
148 127 44 335 315 252 75 99 105 105 174 224 337 329 5 25 320 15 30 26 62 32 332 27 315 62 48 319 34 0 358 344 338 325 319 115 195 16 350 345 349 350 350 349 352
162 162 24 337 263 58 84 84 122 93 191 337 92 101 42 20 15 60 39 120 24 64 360 342 304 1 212 25 359 8 11 332 271 357 317 322 62 127 348 335 340 346 349 351 350
170 116 28 274 64 42 79 117 103 127 132 110 78 54 11 41 118 93 40 54 119 343 358 18 315 320 9 149 7 343 341 0 335 349 338 272 12 41 333 337 345 346 346 346 348
75 71 88 272 108 92 123 105 82 151 122 140 125 350 202 94 265 227 104 129 147 282 10 18 6 312 155 172 204 8 324 319 323 225 298 297 38 357 349 339 339 340 345 337 337
162 74 58 61 40 125 131 134 126 84 102 107 111 192 193 189 31 158 164 162 208 239 100 270 290 326 324 307 311 306 320 306 286 281 336 296 320 319 326 321 317 318 323 322 337
31 72 3 96 60 113 111 150 147 151 129 197 148 223 310 228 229 200 165 187 184 158 211 283 293 320 296 294 316 294 287 286 273 270 272 317 301 298 303 304 302 302 306 322 330
114 141 103 95 118 130 125 158 165 138 172 166 228 161 218 293 340 314 283 214 225 176 238 202 288 310 291 19 312 285 261 265 266 253 251 269 273 299 284 292 314 310 313 320 323
109 117 125 155 145 191 134 146 165 153 152 319 157 199 225 304 304 305 282 270 254 251 237 263 299 317 293 322 289 248 217 267 264 248 243 275 305 319 308 308 305 305 299 313 318